[[{"header":{"parameterUnit":"m.s-1","parameterCategory":1,"la1":30.2991,"la2":30.254,"lo1":-89.0895,"lo2":-89.0444,"dy":0.0017,"dx":0.0017,"nx":28,"ny":28,"refTime":"2025-04-30T21:00:00:Z","depth":0,"parameterNumber":2,"parameterNumberName":"U-component_of_WINDS"},"data":[0,0,0,0,0,0,0,0,0,0,0,0,0,0,0,0,0,0,0,0,0,0,0,0,0,0,0,0,0,0,0,0,0,0,0,0,0,0,0,0,0,0,0,0,0,0,0,0,0,0,0,0,0,0,0,0,0,0,-2.2349,-2.2349,0,-2.2353,-2.2353,-2.2353,-2.2328,-2.2327,-2.2326,-2.2326,-2.2329,-2.233,-2.2331,0,0,0,0,0,0,0,0,0,0,0,0,0,-2.2323,-2.2324,-2.2349,-2.2349,-2.235,-2.2353,-2.2353,-2.2353,-2.2328,-2.2327,-2.2326,-2.2325,-2.2329,-2.233,-2.2331,0,0,0,0,0,0,0,0,0,0,0,0,0,-2.2331,-2.2324,-2.2349,-2.2337,-2.2336,-2.2353,-2.2353,-2.2353,-2.2328,-2.2327,-2.2326,-2.2325,-2.2329,-2.233,-2.2331,-2.2359,0,0,-2.2334,-2.2335,0,0,0,0,0,0,0,0,-2.2331,-2.2332,-2.2339,-2.2338,-2.2337,-2.2339,-2.2345,-2.2355,-2.2328,-2.2331,-2.2326,-2.2324,-2.2333,-2.2334,-2.2337,-2.2359,-2.2359,-2.2334,-2.2335,-2.2335,-2.2336,0,0,0,0,0,0,0,-2.233,-2.2332,-2.2351,-2.2339,-2.2338,-2.2332,-2.2332,-2.2347,-2.2338,-2.2331,-2.2329,-2.233,-2.2332,-2.2336,-2.2337,-2.2359,-2.2334,-2.2335,-2.2336,-2.2336,-2.2406,-2.2407,0,0,0,0,0,0,-2.2331,-2.2332,-2.2351,-2.2351,-2.2331,-2.2334,-2.2334,-2.2339,-2.2338,-2.2337,-2.2331,-2.2329,-2.2334,-2.2335,-2.2337,-2.237,-2.2335,-2.2337,-2.2337,-2.2405,-2.2406,-2.2408,0,0,0,0,0,0,-2.2331,-2.2333,-2.235,-2.2341,-2.2343,-2.2335,-2.2342,-2.234,-2.2343,-2.2338,-2.2336,-2.2336,-2.2334,-2.2335,-2.2354,-2.237,-2.2337,-2.2338,-2.2403,-2.2405,-2.2407,-2.2436,0,0,0,0,0,0,-2.233,-2.2333,-2.2343,-2.2341,-2.2343,-2.2367,-2.2343,-2.2341,-2.2345,-2.2342,-2.2342,-2.2341,-2.2333,-2.2352,-2.2355,-2.2371,-2.2339,-2.2402,-2.2404,-2.2406,-2.2434,-2.2439,-2.2443,0,0,0,0,0,-2.2329,-2.2351,-2.2344,-2.2346,-2.2356,-2.2368,-2.2369,-2.236,-2.2347,-2.2357,-2.2354,-2.2341,-2.2368,-2.2354,-2.2357,-2.2373,-2.2401,-2.2404,-2.2406,-2.2432,-2.2438,-2.2443,0,0,0,0,0,0,-2.2355,-2.235,-2.2342,-2.2364,-2.2367,-2.2364,-2.2376,-2.2366,-2.2373,-2.237,-2.2358,-2.2358,-2.2379,-2.2378,-2.2363,-2.2401,-2.2382,-2.2385,-2.2401,-2.2406,-2.2411,-2.241,-2.234,0,0,0,0,0,-2.2363,-2.2373,-2.2369,-2.2389,-2.2391,-2.2384,-2.2389,-2.2381,-2.2383,-2.2384,-2.2382,-2.2385,-2.2394,-2.24,-2.2408,-2.2434,-2.2434,-2.2447,-2.2452,-2.2455,-2.2458,-2.2472,-2.2478,-2.2416,-2.2416,-2.2416,0,0,-2.238,-2.2379,-2.2386,-2.2394,-2.2395,-2.2406,-2.2384,-2.2397,-2.2405,-2.2386,-2.2403,-2.2403,-2.2405,-2.2428,-2.2437,-2.2428,-2.2475,-2.2459,-2.2462,-2.2462,-2.2476,-2.2481,-2.2487,-2.2418,-2.2418,-2.2417,0,0,-2.2416,-2.2416,-2.2433,-2.2435,-2.2437,-2.2433,-2.2437,-2.2436,-2.2435,-2.2452,-2.2438,-2.2449,-2.2464,-2.2467,-2.247,-2.251,-2.2499,-2.2513,-2.2537,-2.2551,-2.2556,-2.256,-2.2574,-2.258,-2.2516,-2.2516,-2.2516,0,-2.2437,-2.2453,-2.2443,-2.2457,-2.2461,-2.2445,-2.2462,-2.2465,-2.247,-2.2473,-2.2463,-2.2483,-2.2483,-2.2507,-2.2517,-2.252,-2.2525,-2.2513,-2.2556,-2.256,-2.2564,-2.2577,-2.2583,-2.2518,-2.2518,-2.2518,-2.2518,0,-2.2478,-2.249,-2.2503,-2.2509,-2.2515,-2.253,-2.2523,-2.2531,-2.2524,-2.2521,-2.2539,-2.254,-2.2548,-2.2553,-2.2546,-2.2576,-2.257,-2.2558,-2.2538,-2.2572,-2.2584,-2.2589,-2.2521,-2.252,-2.2519,-2.2519,0,0,-2.2529,-2.253,-2.2535,-2.2538,-2.254,-2.2549,-2.2565,-2.2573,-2.258,-2.2584,-2.2597,-2.2612,-2.2601,-2.2605,-2.2599,-2.2611,-2.2643,-2.2598,-2.2597,-2.2606,-2.2676,-2.2685,-2.2691,-2.2636,-2.2637,-2.2638,-2.2676,0,-2.2564,-2.259,-2.2583,-2.2609,-2.262,-2.2606,-2.262,-2.2623,-2.2621,-2.2631,-2.2629,-2.2639,-2.2624,-2.2627,-2.2639,-2.2637,-2.2657,-2.2634,-2.2648,-2.2649,-2.2647,-2.2698,-2.2706,-2.2742,-2.2681,-2.2682,-2.2682,0,-2.2608,-2.2615,-2.2642,-2.2644,-2.2648,-2.2661,-2.2668,-2.2678,-2.2682,-2.268,-2.2685,-2.2676,-2.2692,-2.2674,-2.2696,-2.2681,-2.2686,-2.2687,-2.2688,-2.2688,-2.2667,-2.2699,-2.2754,-2.2759,-2.269,-2.2689,-2.2689,0,-2.2642,-2.2659,-2.2677,-2.268,-2.2682,-2.2691,-2.2693,-2.2696,-2.2702,-2.2709,-2.2713,-2.2722,-2.2727,-2.2734,-2.2729,-2.2716,-2.2752,-2.2733,-2.2751,-2.2751,-2.2758,-2.2757,-2.2814,-2.2763,-2.2763,-2.2763,-2.2763,0,-2.2682,-2.27,-2.2693,-2.2704,-2.2723,-2.2716,-2.2735,-2.2735,-2.2738,-2.275,-2.2739,-2.275,-2.2742,-2.2753,-2.2749,-2.2768,-2.277,-2.2769,-2.2768,-2.277,-2.277,-2.2773,-2.277,-2.2764,-2.2764,-2.2764,-2.2763,0,-2.2723,-2.2719,-2.2739,-2.274,-2.274,-2.2755,-2.2756,-2.2767,-2.2765,-2.278,-2.2783,-2.278,-2.2792,-2.2788,-2.2801,-2.2798,-2.2823,-2.2818,-2.2821,-2.282,-2.2838,-2.2836,-2.2898,-2.2906,-2.285,-2.2851,-2.2851,0,-2.2748,-2.2762,-2.2764,-2.2771,-2.2774,-2.2785,-2.2792,-2.2785,-2.2792,-2.2799,-2.2809,-2.2821,-2.2829,-2.285,-2.2849,-2.2859,-2.2855,-2.2876,-2.2856,-2.2858,-2.2855,-2.2854,-2.2855,-2.2879,-2.288,-2.288,-2.2881,0,-2.2794,-2.2792,-2.2801,-2.2811,-2.2819,-2.2825,-2.2831,-2.2838,-2.2832,-2.2841,-2.2853,-2.286,-2.2874,-2.2886,-2.2895,-2.2897,-2.2888,-2.2887,-2.2892,-2.2894,-2.2895,-2.2895,-2.2831,-2.2886,-2.2885,-2.2885,-2.2884,-2.2884,-2.2828,-2.2839,-2.2843,-2.2854,-2.2859,-2.2865,-2.2875,-2.2875,-2.2886,-2.2896,-2.2892,-2.2907,-2.2912,-2.2924,-2.2927,-2.2939,-2.2931,-2.2938,-2.2939,-2.2941,-2.2943,-2.2894,-2.2941,-2.2941,-2.2941,-2.2941,-2.294,0,-2.2873,-2.2875,-2.2886,-2.2895,-2.2904,-2.2895,-2.2902,-2.291,-2.2923,-2.2929,-2.2938,-2.2953,-2.2965,-2.2965,-2.2977,-2.2986,-2.2982,-2.2989,-2.2988,-2.2989,-2.295,-2.2945,-2.2992,-2.2992,-2.2992,-2.2992,-2.2992,-2.2992,-2.2897,-2.2916,-2.2915,-2.2936,-2.2938,-2.2952,-2.2957,-2.2963,-2.2967,-2.2985,-2.2995,-2.2995,-2.2999,-2.3011,-2.3021,-2.3021,-2.3026,-2.3034,-2.3033,-2.2996,-2.2991,-2.2986,-2.2981,-2.3035,-2.3035,-2.307,-2.3071,-2.3071]},{"header":{"parameterUnit":"m.s-1","parameterCategory":1,"la1":30.2991,"la2":30.254,"lo1":-89.0895,"lo2":-89.0444,"dy":0.0017,"dx":0.0017,"nx":28,"ny":28,"refTime":"2025-04-30T21:00:00:Z","depth":0,"parameterNumber":3,"parameterNumberName":"V-component_of_WINDS"},"data":[0,0,0,0,0,0,0,0,0,0,0,0,0,0,0,0,0,0,0,0,0,0,0,0,0,0,0,0,0,0,0,0,0,0,0,0,0,0,0,0,0,0,0,0,0,0,0,0,0,0,0,0,0,0,0,0,0,0,5.485,5.485,0,5.4812,5.4812,5.4812,5.4785,5.4785,5.4785,5.4785,5.4742,5.4741,5.474,0,0,0,0,0,0,0,0,0,0,0,0,0,5.4896,5.4896,5.485,5.485,5.4849,5.4812,5.4812,5.4811,5.4786,5.4785,5.4785,5.4785,5.4742,5.4741,5.474,0,0,0,0,0,0,0,0,0,0,0,0,0,5.4869,5.4896,5.485,5.4832,5.483,5.4813,5.4812,5.4811,5.4786,5.4785,5.4785,5.4785,5.4743,5.4741,5.474,5.4736,0,0,5.4735,5.4735,0,0,0,0,0,0,0,0,5.4871,5.4868,5.4835,5.4833,5.4831,5.4803,5.4813,5.4786,5.4786,5.4802,5.4785,5.4785,5.4762,5.4759,5.4753,5.4734,5.4732,5.4735,5.4734,5.4734,5.4733,0,0,0,0,0,0,0,5.4873,5.4869,5.4835,5.4835,5.4832,5.4825,5.482,5.4807,5.4784,5.4801,5.4799,5.4795,5.4761,5.4754,5.4751,5.4732,5.4735,5.4734,5.4733,5.4733,5.4709,5.471,0,0,0,0,0,0,5.4878,5.4871,5.4836,5.4834,5.4851,5.4824,5.4819,5.4812,5.4784,5.478,5.4795,5.4794,5.4757,5.4753,5.475,5.4744,5.4734,5.4732,5.4732,5.4709,5.4709,5.471,0,0,0,0,0,0,5.4879,5.4875,5.4838,5.4852,5.4847,5.4824,5.4816,5.4812,5.4805,5.478,5.4775,5.4793,5.4756,5.4752,5.474,5.4742,5.4732,5.473,5.4709,5.4709,5.471,5.4733,0,0,0,0,0,0,5.4881,5.4876,5.4875,5.4852,5.4846,5.483,5.4816,5.4811,5.4803,5.4801,5.4776,5.4772,5.4756,5.4743,5.4739,5.474,5.4729,5.4708,5.4709,5.4709,5.4732,5.4734,5.4736,0,0,0,0,0,5.4882,5.4882,5.4875,5.4871,5.4844,5.483,5.4826,5.4809,5.4803,5.4802,5.4786,5.4773,5.4743,5.4742,5.4737,5.4738,5.4708,5.4709,5.4709,5.4731,5.4734,5.4736,0,0,0,0,0,0,5.4903,5.4878,5.487,5.4863,5.4849,5.4826,5.4823,5.4812,5.4799,5.4797,5.4775,5.477,5.476,5.4748,5.4747,5.4734,5.4724,5.4724,5.4742,5.4744,5.4746,5.4749,5.4728,0,0,0,0,0,5.4908,5.4899,5.4877,5.4872,5.4866,5.4846,5.4839,5.4827,5.4811,5.4805,5.4788,5.4772,5.4759,5.4751,5.4738,5.473,5.4724,5.4729,5.4731,5.4733,5.4732,5.4728,5.4729,5.4712,5.4712,5.4712,0,0,5.4915,5.49,5.4896,5.4876,5.4864,5.4855,5.4841,5.4832,5.4825,5.4803,5.4792,5.4779,5.476,5.475,5.4745,5.474,5.4736,5.4733,5.4735,5.4734,5.4728,5.473,5.4732,5.4712,5.4712,5.4712,0,0,5.4924,5.4913,5.4908,5.4897,5.4879,5.4866,5.4865,5.4844,5.4835,5.4824,5.4808,5.4798,5.4777,5.4764,5.4754,5.4761,5.4748,5.4757,5.4767,5.4763,5.4765,5.4766,5.4768,5.4769,5.4757,5.4757,5.4757,0,5.4936,5.4922,5.4906,5.4899,5.489,5.4872,5.4867,5.4856,5.4835,5.4829,5.4824,5.4797,5.4783,5.477,5.4772,5.4765,5.4763,5.4759,5.4766,5.4767,5.4768,5.477,5.477,5.4758,5.4758,5.4758,5.4758,0,5.4937,5.4928,5.4926,5.4908,5.49,5.4893,5.4875,5.4868,5.4858,5.4845,5.4834,5.4817,5.48,5.4796,5.4785,5.4782,5.4779,5.4771,5.476,5.4771,5.4772,5.4773,5.476,5.476,5.4759,5.4759,0,0,5.4957,5.4932,5.4931,5.4923,5.4903,5.4896,5.4888,5.4874,5.4868,5.4855,5.4847,5.483,5.4822,5.4812,5.4799,5.4795,5.4802,5.4787,5.4786,5.479,5.4798,5.4805,5.4806,5.4794,5.4794,5.4794,5.48,0,5.4963,5.4951,5.4936,5.4928,5.492,5.4903,5.4897,5.4884,5.4872,5.4862,5.4849,5.4837,5.4828,5.4821,5.4817,5.4802,5.4803,5.4802,5.4786,5.4786,5.4791,5.4807,5.4813,5.4819,5.48,5.48,5.48,0,5.4968,5.4957,5.4949,5.4931,5.4927,5.4922,5.4907,5.4899,5.4884,5.4875,5.4865,5.4852,5.4842,5.4834,5.4821,5.482,5.4813,5.4805,5.4805,5.4802,5.4793,5.4804,5.4821,5.4822,5.4801,5.4801,5.4801,0,5.4984,5.4967,5.496,5.4953,5.4932,5.4929,5.492,5.4904,5.4897,5.4884,5.4879,5.4865,5.4857,5.4846,5.4829,5.4825,5.4818,5.4808,5.481,5.481,5.4808,5.4808,5.4824,5.4805,5.4805,5.4805,5.4805,0,5.4992,5.4987,5.4967,5.4962,5.4956,5.494,5.4934,5.4924,5.491,5.4903,5.4888,5.4881,5.4859,5.485,5.4837,5.4828,5.4824,5.4817,5.4813,5.4818,5.4819,5.4812,5.4811,5.4805,5.4805,5.4805,5.4805,0,5.5008,5.4994,5.4985,5.4967,5.4962,5.4958,5.4942,5.4937,5.4925,5.4916,5.4913,5.4894,5.4882,5.4865,5.4847,5.4838,5.4831,5.4825,5.4836,5.4834,5.4837,5.4837,5.4848,5.4849,5.483,5.483,5.483,0,5.5013,5.501,5.4992,5.4986,5.4978,5.497,5.4963,5.4947,5.494,5.4923,5.4919,5.4907,5.4896,5.4877,5.4861,5.4847,5.4841,5.4846,5.4839,5.4844,5.4841,5.4841,5.4841,5.4848,5.4848,5.4848,5.4848,0,5.5025,5.5019,5.501,5.4999,5.4991,5.4981,5.497,5.4967,5.4948,5.4941,5.4929,5.4921,5.4904,5.4891,5.4876,5.4865,5.4854,5.4851,5.4851,5.4855,5.4862,5.4858,5.4841,5.4851,5.485,5.485,5.485,5.485,5.5036,5.5032,5.5019,5.501,5.5001,5.4991,5.4986,5.4974,5.4965,5.4951,5.4942,5.4931,5.4916,5.4894,5.4885,5.4875,5.487,5.487,5.4869,5.4869,5.4871,5.4864,5.4872,5.4872,5.4872,5.4872,5.4872,0,5.5047,5.5038,5.503,5.5016,5.5009,5.5,5.4988,5.4982,5.4973,5.4961,5.4952,5.4939,5.4927,5.491,5.4897,5.4893,5.4887,5.489,5.4889,5.4887,5.4876,5.4878,5.4895,5.4895,5.4895,5.4895,5.4895,5.4895,5.5051,5.5045,5.5037,5.5026,5.5017,5.5007,5.5001,5.4992,5.4983,5.497,5.496,5.4951,5.4937,5.4922,5.4911,5.4906,5.4902,5.4906,5.49,5.489,5.4888,5.4886,5.4887,5.4906,5.4906,5.4912,5.4912,5.4912]}]]